Lid_Strength_Index
6 8 10 9 6 6 5 4 4 5 4 5 5 3 2 1 0 -0 -0 -0 -1 -1 -1 -1 -1 -1 -1 -1 -1 -1 -1 -1
8 8 7 6 5 5 5 5 4 5 7 4 2 2 1 0 0 0 0 -0 -1 -1 -1 -1 -1 -1 -1 -1 -1 -1 -1 -1
8 7 6 5 4 4 6 6 6 6 9 7 2 1 1 0 0 1 0 -0 -1 -1 -1 -1 -1 -1 -1 -1 -1 -1 -1 -1
9 8 6 5 4 5 5 4 6 6 7 6 2 2 1 0 0 0 0 -0 -1 -1 -1 -1 -1 -1 -1 -1 -1 -1 -1 -1
7 7 7 5 4 5 5 5 6 4 8 5 5 1 1 0 0 0 -0 -0 -0 -0 -1 -1 -1 -1 -1 -1 -1 -1 -1 -1
7 8 7 5 4 4 5 8 3 3 7 7 3 1 1 2 2 2 2 0 0 -0 -0 -1 -1 -1 -1 -1 -1 -1 -1 -1
7 7 6 4 5 3 4 5 5 4 4 3 2 2 2 3 2 1 1 1 1 0 -0 -0 -1 -1 -1 -1 -1 -1 -1 -1
6 5 5 5 5 4 5 6 6 5 3 2 2 2 4 4 4 2 2 1 2 1 1 0 -0 -1 -1 -1 -1 -1 -1 -1
5 4 4 5 5 4 6 7 5 6 4 3 3 2 3 2 2 2 1 1 4 1 1 1 -0 -0 1 3 1 1 -0 -1
4 4 4 5 5 6 6 6 4 3 3 3 4 3 3 3 2 2 1 1 1 -0 0 0 -0 0 2 1 -0 -0 -0 -1
4 4 4 4 6 6 6 4 3 3 3 3 3 3 2 2 2 1 2 1 1 0 0 -0 0 -0 1 1 1 0 -0 -0
4 4 4 6 6 6 6 4 4 4 4 3 3 3 2 2 2 2 1 1 0 0 -0 -0 -0 -0 0 -0 0 -0 -0 -0
5 5 6 6 9 10 5 4 5 4 4 3 3 2 3 2 2 1 1 1 1 0 -0 -0 -0 -1 -0 -0 -0 -0 -0 -1
6 6 6 7 12 7 5 5 5 5 4 4 3 3 2 2 2 1 1 1 0 0 0 -0 -0 -0 -0 -0 -0 -0 -0 -1
7 5 7 8 12 7 6 5 5 5 4 4 4 3 2 1 1 1 1 1 1 0 0 0 -0 -0 -0 -0 -0 -0 -0 -0
8 6 8 10 11 8 7 5 5 5 4 4 4 3 2 2 1 1 1 0 0 0 0 0 -0 -0 -0 -0 -0 -1 -0 -0
7 5 6 8 11 7 6 6 6 5 5 5 4 3 2 1 1 1 1 1 1 1 0 0 1 1 1 1 1 0 -0 -1
7 6 6 10 11 10 6 6 6 5 5 5 4 3 3 2 1 1 1 0 0 -0 -0 -0 0 0 0 1 0 0 -0 -0
8 6 6 9 12 10 8 8 5 5 4 4 4 4 3 3 2 1 1 1 0 0 -0 -0 -0 0 0 0 0 1 1 0
7 8 10 8 16 12 10 10 9 7 5 5 4 3 3 3 2 1 1 0 1 0 -0 0 0 1 1 2 2 1 1 0